Flag for Germany Weather past 2 weeks in Vechta, Lower Saxony, Germany

Now
63 °F

Passing clouds.


Feels Like: 63 °F
Forecast: 52 / 74 °F
Wind: 8 mph from Southeast

Location: Bremen Airport

Current Time: Aug 1, 2015 at 10:29:07 AM

Latest Report: Aug 1, 2015 at 9:50 AM


Visibility: N/A

Pressure: 30.04 "Hg

Humidity: 59%

Dew point: 48 °F

Location of VechtaLocation

Historic Weather in Vechta — Graph

°F

Vechta temperature yesterday

Maximum temperature yesterday: 63 °F (at 3:20 PM)
Minimum temperature yesterday: 50 °F (at 11:20 PM)
Average temperature yesterday: 57 °F

Past Weeks' High & Low Weather Summary

 TemperatureHumidityPressure
High88 °F (Jul 17, 2:20 PM)100% (Jul 21, 2:50 AM)30.12 "Hg (Jul 21, 2:50 AM)
Low48 °F (Aug 1, 2:50 AM)35% (Jul 17, 4:20 PM)29.42 "Hg (Jul 25, 12:20 PM)
Average63 °F75%29.82 "Hg
* Reported Jul 17 9:20 AM — Aug 1 9:20 AM, Vechta, Weather by CustomWeather, © 2015

Note: Actual official high and low records may vary slightly from our data, if they occured in-between our weather recording intervals... More about our weather records

Advertising

Vechta weather history for previous 24 hours

 ConditionsComfort  
Time TempWeatherWind HumidityBarometerVisibility
9:20 AM
Sat, Aug 1
59 °FSunny.10 mph63%30.04 "Hg10 mi
8:50 AM57 °FSunny.12 mph67%30.04 "Hg10 mi
8:20 AM55 °FSunny.9 mph72%30.07 "Hg10 mi
7:50 AM54 °FPassing clouds.7 mph77%30.04 "HgN/A
7:20 AM52 °FSunny.6 mph82%30.04 "Hg10 mi
6:50 AM48 °FSunny.3 mph87%30.07 "Hg10 mi
6:20 AM48 °FClear.5 mph94%30.07 "Hg10 mi
5:50 AM50 °FClear.3 mph82%30.07 "Hg10 mi
5:20 AM50 °FClear.3 mph82%30.07 "Hg10 mi
4:50 AM50 °FClear.5 mph82%30.07 "Hg10 mi
4:20 AM48 °FClear.3 mph87%30.07 "Hg10 mi
3:50 AM50 °FClear.5 mph88%30.07 "Hg10 mi
3:20 AM48 °FPassing clouds.3 mph87%30.07 "HgN/A
2:50 AM48 °FClear.1 mph87%30.09 "Hg10 mi
2:20 AM50 °FClear.5 mph82%30.09 "Hg10 mi
1:50 AM50 °FClear.3 mph88%30.09 "Hg10 mi
1:20 AM52 °FClear.3 mph82%30.09 "Hg10 mi
12:50 AM52 °FClear.3 mph82%30.09 "Hg10 mi
12:20 AM52 °FClear.5 mph77%30.09 "Hg10 mi
11:50 PM
Fri, Jul 31
50 °FClear.5 mph82%30.09 "Hg10 mi
11:20 PM50 °FClear.6 mph76%30.09 "Hg10 mi
10:50 PM54 °FClear.3 mph72%30.09 "Hg10 mi
10:20 PM55 °FSunny.6 mph67%30.09 "Hg10 mi
9:50 PM57 °FSunny.6 mph63%30.09 "Hg10 mi
9:20 PM57 °FSunny.6 mph63%30.07 "Hg10 mi
8:50 PM57 °FSunny.8 mph59%30.09 "Hg10 mi
8:20 PM59 °FPassing clouds.9 mph55%30.07 "HgN/A
7:50 PM61 °FPassing clouds.9 mph55%30.09 "HgN/A
7:20 PM63 °FPassing clouds.7 mph52%30.09 "HgN/A
6:50 PM63 °FPassing clouds.8 mph52%30.09 "HgN/A
6:20 PM63 °FPassing clouds.9 mph49%30.09 "HgN/A
5:50 PM63 °FPassing clouds.8 mph49%30.09 "HgN/A
5:20 PM63 °FPartly sunny.12 mph49%30.09 "HgN/A
4:50 PM63 °FPartly sunny.12 mph56%30.09 "HgN/A
4:20 PM63 °FPartly sunny.7 mph49%30.09 "HgN/A
3:50 PM63 °FScattered clouds.9 mph49%30.09 "HgN/A
3:20 PM63 °FScattered clouds.9 mph56%30.09 "HgN/A
2:50 PM61 °FPartly sunny.12 mph59%30.12 "HgN/A
2:20 PM61 °FPartly sunny.9 mph55%30.09 "HgN/A
1:50 PM61 °FPartly sunny.8 mph52%30.12 "HgN/A
1:20 PM61 °FPartly sunny.10 mph55%30.12 "HgN/A
12:50 PM59 °FBroken clouds.14 mph63%30.09 "HgN/A
12:20 PM61 °FPartly sunny.10 mph55%30.09 "HgN/A
11:50 AM61 °FPartly sunny.10 mph55%30.09 "HgN/A
11:20 AM59 °FPartly sunny.13 mph63%30.09 "HgN/A
10:50 AM57 °FPartly sunny.15 mph67%30.09 "HgN/A
10:20 AM59 °FPartly sunny.14 mph63%30.09 "HgN/A
Weather by CustomWeather, © 2015

See weather overviewHow to use our weather pages